Location: Glion
(46.4330°N, 6.9246°E)
Time: 21:42:27
(UTC+00:00)

ERBS - Pass Details

Date: 03 March 2021
Orbit: 407 x 412 km, 57.0° (Epoch: 21 April)

Event Time Altitude Azimuth Distance (km) Brightness Sun altitude
Rises 18:55:03 0° 270° (W) 2,356 7.8 -16.9°
Reaches altitude 10° 18:57:28 10° 287° (WNW) 1,494 6.3 -17.3°
Maximum altitude 19:00:06 21° 339° (NNW) 994 4.5 -17.8°
Enters shadow 19:02:00 14° 22° (NNE) 1,279 4.6 -18.1°
